Regional Weather Roundup
Issued by NWS

Home | Current Version | Previous Version | Text Only | Print | Product List | Glossary On
Versions: 1 2 3 4 5 6 7 8 9 10 11 12 13 14 15 16 17 18 19 20 21 22 23 24 25 26 27 28 29 30 31 32 33 34 35 36 37 38 39 40 41 42 43 44 45 46 47 48 49 50
000
ASUS43 KMPX 071810
RWRMN
WEATHER ROUNDUP FOR MINNESOTA
NATIONAL WEATHER SERVICE TWIN CITIES/CHANHASSEN MN
1200 PM CST WED DEC 07 2016


NOTE: "FAIR" INDICATES FEW OR NO CLOUDS BELOW 12,000 FEET WITH NO
SIGNIFICANT WEATHER AND/OR OBSTRUCTIONS TO VISIBILITY. N/A MEANS
CURRENT SKY AND/OR WEATHER CONDITIONS ARE NOT AVAILABLE.

MNZ060>063-068>070-071900-
   Twin Cities Metro

CITY           SKY/WX    TMP DP  RH WIND       PRES   REMARKS
TWIN CITIES    FLURRIES  19   9  65 W17G28    30.04S WCI   4
6HR MIN TEMP:  16; 6HR MAX TEMP:  19; 6HR PCP: TRACE;

ST PAUL        LGT SNOW  20  11  68 W17G29    30.05S WCI   5
CRYSTAL        FLURRIES  20   8  60 W18G28    30.02F WCI   5
BLAINE         FLURRIES  21  12  68 W17G25    30.01S WCI   7
LAKEVILLE      CLOUDY    18  10  73 W14G25    30.05S WCI   4
EDEN PRAIRIE   FLURRIES  19   9  65 W20G29    30.04S WCI   3
6HR MIN TEMP:  16; 6HR MAX TEMP:  20; 6HR PCP: TRACE;

SOUTH ST PAUL  FLURRIES  20  11  67 W16G22    30.04S WCI   6
LAKE ELMO      FLURRIES  21  14  73 W20G25    30.03S WCI   6
$$
MNZ001>005-007-008-013>017-022>024-027-028-071900-
   Northwest Minnesota

CITY           SKY/WX    TMP DP  RH WIND       PRES   REMARKS
BEMIDJI        LGT SNOW  16  11  83 W21G26    29.84S WCI  -2
HALLOCK        LGT SNOW  21  19  93 NW28G35   29.89S VSB 3/4 WCI   3
ROSEAU         CLOUDY    25  19  80 NW16      29.80R WCI  12
WARROAD        LGT SNOW  25  19  80 NW15G21   29.78R VSB 3/4 WCI  12
THIEF RVR FALL LGT SNOW  18  15  88 W20       29.89S FOG     WCI   2
CROOKSTON      LGT SNOW  18  14  86 NW25      29.95R WCI  -1
FOSSTON        LGT SNOW  14  10  85 W21G26    29.90S WCI  -4
DETROIT LAKES  LGT SNOW  14  10  85 W20G26    29.97R WCI  -3
MOORHEAD       MIX PCPN  12   9  85 W24G31    30.04R WCI  -8
PARK RAPIDS    LGT SNOW  15   7  70 W21G29    29.90R WCI  -2
$$
MNZ006-009>011-018-025>026-071900-
   North Central Minnesota

CITY           SKY/WX    TMP DP  RH WIND       PRES   REMARKS
BAUDETTE       LGT SNOW  25  20  81 NW20G25   29.73R WCI  11
FLAG ISLAND    LGT SNOW  25  21  86 N21       29.75R WCI  10
INTL FALLS     LGT SNOW  24  20  84 W12       29.69R VSB 1   WCI  13
6HR MIN TEMP:  22; 6HR MAX TEMP:  24; 6HR PCP:  0.06;

WASKISH        CLOUDY    21  18  86 W18G24    29.77S WCI   6
BIG FORK       LGT SNOW  19  16  86 W10G16    29.75S WCI   8
LONGVILLE      FLURRIES  18  10  73 W10G18    29.85S WCI   6
CRANE LAKE     LGT SNOW  21  19  93 W9        29.69S WCI  11
COOK           LGT SNOW  19  16  86 W17       29.71S WCI   4
$$
MNZ012-019>021-037-071900-
   Northeast Minnesota

CITY           SKY/WX    TMP DP  RH WIND       PRES   REMARKS
DULUTH         LGT SNOW  17  11  77 W24G31    29.77R BLWGSNOWWCI  -1
6HR MIN TEMP:  15; 6HR MAX TEMP:  17; 6HR PCP: TRACE;

ELY            LGT SNOW  19  16  86 W20       29.66S WCI   4
HIBBING        LGT SNOW  18  13  80 W13G18    29.75S WCI   5
EVELETH        LGT SNOW  20  15  79 W14G23    29.74S WCI   7
DULUTH HARBOR  LGT SNOW  21  14  73 SW21G30   29.84S WCI   6
TWO HARBORS    LGT SNOW  21  14  73 SW15G22   29.75R WCI   8
SILVER BAY     LGT SNOW  21  16  79 W8        29.71R WCI  12
GRAND MARAIS     N/A     28  23  81 W13G25    29.66S WCI  17
G MARAIS ARPRT FLURRIES  19  12  73 W8G18     29.58S WCI   9
$$
MNZ029>031-032-039>041-046>048-054>057-064-071900-
   West Central Minnesota

CITY           SKY/WX    TMP DP  RH WIND       PRES   REMARKS
FERGUS FALLS   LGT SNOW  12   9  85 NW23      30.09S WCI  -7
WHEATON        LGT SNOW  18  10  73 W24G33    30.12S WCI   0
MORRIS         LGT SNOW  18  10  73 W30G39    30.07S WCI  -2
ALEXANDRIA     LGT SNOW  13   8  81 W26G37    30.02R WCI  -7
ELBOW LAKE     LGT SNOW  13  10  85 NW22G28   30.06R VSB 3/4 WCI  -5
WADENA         LGT SNOW  12   7  79 W18G24    29.95S WCI  -5
GLENWOOD       LGT SNOW  14  10  85 W21G33    30.03S WCI  -4
APPLETON       CLOUDY    19   9  63 NW21G32   30.11S WCI   3
BENSON         FLURRIES  18   9  68 NW23G32   30.09S WCI   0
ORTONVILLE     CLOUDY    16   7  67 NW22G31   30.11S WCI  -2
MADISON        PTSUNNY   19   9  63 W26G39    30.14S WCI   1
WILLMAR        FLURRIES  18  10  73 W21G31    30.08S WCI   1
$$
MNZ033>034-036-042>043-049>051-058-059-071900-
   Central Minnesota

CITY           SKY/WX    TMP DP  RH WIND       PRES   REMARKS
ST CLOUD       FLURRIES  18   9  68 W22G28    30.01S WCI   1
6HR MIN TEMP:  14; 6HR MAX TEMP:  18; 6HR PCP: TRACE;

PAYNESVILLE    CLOUDY    16   8  72 W24G33    30.05S WCI  -3
AITKIN         MIX PCPN  19   7  58 W9G21     29.88R WCI   9
PINE RIVER     CLOUDY    16   9  73 W12G21    29.93S WCI   3
BRAINERD       CLOUDY    15   8  73 W18G24    29.93R WCI  -2
STAPLES        CLOUDY    14   9  79 W20       29.95R WCI  -3
LONG PRAIRIE   LGT SNOW  14   9  79 SW15G26   30.00S WCI  -1
LITTLE FALLS   CLOUDY    18   9  68 W18G25    29.99R WCI   2
LITCHFIELD     LGT SNOW  18  10  73 W16G28    30.06S WCI   3
BUFFALO        FLURRIES  18  10  70 W15G24    30.05S WCI   3
MAPLE LAKE     FLURRIES  19  11  72 W14G23    30.04S WCI   5
HUTCHINSON     FLURRIES  18  10  73 W23G32    30.07F WCI   0
$$
MNZ037-044-045-052-053-071900-
   East Central Minnesota

CITY           SKY/WX    TMP DP  RH WIND       PRES   REMARKS
PRINCETON      FLURRIES  19  10  68 SW18G24   29.98F WCI   4
MORA           PTSUNNY   19   9  63 W18G25    29.97S WCI   4
CAMBRIDGE      FLURRIES  19   9  63 W14G25    29.96F WCI   6
RUSH CITY      CLOUDY    19  10  68 W13G26    29.97S WCI   7
MOOSE LAKE     FLURRIES  19  10  68 W14G25    29.87R WCI   6
HINCKLEY       LGT SNOW  19  12  73 SW20G28   29.93S WCI   4
CLOQUET        LGT SNOW  18   9  68 W15G24    29.81R WCI   3
MCGREGOR       CLOUDY    19  10  68 W17G24    29.88R WCI   4
$$
MNZ071>073-080-081-089-090-097-098-071900-
   Southwest Minnesota

CITY           SKY/WX    TMP DP  RH WIND       PRES   REMARKS
MONTEVIDEO     CLOUDY    19   9  63 NW18G26   30.13S WCI   4
GRANITE FALLS  CLOUDY    20  11  66 W26G33    30.15S WCI   3
CANBY          MOSUNNY   18   8  64 NW26G32   30.16S WCI  -1
MARSHALL       FLURRIES  18   8  65 W28G33    30.13S WCI  -1
REDWOOD FALLS  CLOUDY    19   6  57 W23G38    30.11F WCI   2
OLIVIA         PTSUNNY   19  10  68 W22G30    30.09F WCI   3
PIPESTONE      MOSUNNY   16   7  67 NW23G31   30.14F WCI  -2
WINDOM         PTSUNNY   19   9  63 W24G35    30.12R WCI   2
WORTHINGTON    FLURRIES  16   8  71 W29G38    30.13F WCI  -4
JACKSON        MOSUNNY   18   9  68 W24G33    30.12F WCI   0
TRACY          SUNNY     19  10  67 W18G32    30.13F WCI   4
SLAYTON        SUNNY     16   8  72 W28G35    30.13S WCI  -4
$$
MNZ065>067-074>077-082>085-091>093-071900-
   South Central Minnesota

CITY           SKY/WX    TMP DP  RH WIND       PRES   REMARKS
MANKATO        FLURRIES  18   9  68 W20       30.10F WCI   1
NEW ULM        PTSUNNY   18   7  62 W25G33    30.10F WCI  -1
ST JAMES       MOSUNNY   19   9  63 W26G32    30.13F WCI   1
FAIRMONT       PTSUNNY   19   9  65 NW22G31   30.13F WCI   2
GLENCOE        LGT SNOW  18  12  79 W16G28    30.07S WCI   3
FARIBAULT      FLURRIES  18  10  73 W16G25    30.08S WCI   3
OWATONNA       CLOUDY    18   9  68 W22G28    30.07S WCI   0
WASECA         FLURRIES  19  10  68 W20       30.10F WCI   4
ALBERT LEA     CLOUDY    21  12  68 W15G25    30.09S WCI   8
$$
MNZ078>079-086>088-094>096-071900-
   Southeast Minnesota

CITY           SKY/WX    TMP DP  RH WIND       PRES   REMARKS
ROCHESTER      FLURRIES  17  11  77 W23       30.04S WCI  -1
6HR MIN TEMP:  13; 6HR MAX TEMP:  17; 6HR PCP: TRACE;

RED WING       CLOUDY    21   9  58 W16G24    30.03F WCI   7
STANTON        CLOUDY    20  10  66 W18G24    30.06S WCI   5
DODGE CENTER     N/A     18  10  73 W20G26    30.05S WCI   1
WINONA         SUNNY     21  12  68 W12G22    30.08S WCI   9
AUSTIN         FLURRIES  16  10  79 W14G24    30.08S WCI   1
PRESTON        LGT SNOW  16  10  75 W17G25    30.07S WCI   0
$$
ABBREVIATIONS USED IN REMARKS
   TC - TEMPERATURES IN CELSIUS
  WCI - WIND CHILL INDEX
   HX - HEAT INDEX
  VSB - VISIBILITY
$$




USA.gov is the U.S. government's official web portal to all federal, state and local government web resources and services.